www.pogodaiklimat.ru

Погода и климат >> Архив погоды >> Россия >> Эвенкия >> Большой Порог


ПОГОДА в Большом Пороге

  • Прогноз погоды в Большом Пороге
  • Монитор погоды в Большом Пороге

АРХИВ ПОГОДЫ в Большом Пороге

Время (UTC), дата Ветер
(напр.,м/с)
 
Видим.   Явления Облачность Т
(С)
Тd
(С)
f
(%)
Тe
(С)
Тes
(С)
Комфортность P
(гПа)
Po
(гПа)
Тmin
(С)
Tmax
(С)
R
(мм)
R24
(мм)
S
(см)
09 14.07 З 5 н/о н/о +17.5 +10.8 65 +17 +17 1015.9 1008.0
12 14.07 З 5 20 км 3/3 1000 м
[Sc]
+20.5 +11.3 56 +22 +23 комфорт 1015.3 1007.4 +20.6
15 14.07 З 4
{12}
н/о н/о +18.4 +11.6 65 +19 +19 1015.5 1007.8 +20.5
18 14.07 З 3 20 км 1/0
[Ci fib]
+15.6 +11.4 76 +15 +15 1017.3 1009.3
21 14.07 штиль 0 н/о н/о +12.0 +10.2 89 +11 +11 1018.8 1010.7
00 15.07 СЗ 2 20 км 6/0
[Ac lent Ci fib]
+13.4 +10.9 85 +13 +14 1017.6 1009.5 +10.8
03 15.07 ЮЗ 1 н/о н/о +20.5 +13.2 63 +24 +24 комфорт 1017.1 1009.4 +10.7
06 15.07 С 1 20 км 3/0
[Ci fib]
+25.3 +13.5 48 +27 +38 жарко 1017.0 1009.3
09 15.07 З 2 н/о н/о +27.0 +13.3 43 +29 +29 жарко 1015.7 1008.0
12 15.07 СЗ 1 20 км ясно +27.6 +13.0 41 +29 +32 жарко 1015.6 1007.9 +28.1
15 15.07 штиль 0 н/о н/о +21.0 +16.2 74 +24 +24 комфорт 1017.1 1009.3 +28.2
18 15.07 20 км ясно +15.2 +13.4 89 1017.3 1009.3
21 15.07 штиль 0 н/о н/о +12.7 +11.8 94 +12 +12 1018.8 1010.7
00 16.07 штиль 0 20 км ясно +15.8 +13.1 84 +16 +19 1018.3 1010.2 +12.5
03 16.07 ЮВ 1 н/о н/о +21.2 +15.3 69 +24 +24 комфорт 1017.2 1009.5 +12.5
06 16.07 ЮЗ 1 4000 м мгла ясно +28.1 +14.0 42 +30 +43 жарко 1017.0 1009.3
09 16.07 З 1 н/о н/о +30.8 +14.0 36 +32 +32 жарко 1015.6 1008.0
12 16.07 СЗ 1 4000 м мгла ясно +30.0 +14.4 39 +32 +35 жарко 1013.9 1006.2 +31.1
15 16.07 С 1 н/о н/о +22.5 +17.2 72 +27 +27 душно 1014.5 1006.7 +31.0
18 16.07 СЗ 1 4000 м мгла ясно +17.1 +14.7 86 +18 +18 1014.6 1006.7
21 16.07 штиль 0 н/о н/о +14.3 +13.2 93 +14 +14 1016.0 1008.0
00 17.07 штиль 0 4000 м мгла ясно +17.8 +15.1 84 +18 +21 1015.9 1008.0 +14.0
03 17.07 штиль 0 н/о н/о +24.8 +16.7 61 +28 +28 жарко 1012.8 1005.2 +14.0
06 17.07 СВ 1 4000 м мгла ясно +31.5 +13.7 34 +33 +46 жарко 1012.8 1005.3
09 17.07 С 1 н/о н/о +32.7 +11.6 28 +33 +33 жарко 1010.0 1002.6
12 17.07 С 2 20 км ясно +32.5 +11.4 28 +33 +35 жарко 1009.7 1002.2 +33.3
15 17.07 С 1 н/о н/о +25.1 +17.3 62 +29 +29 душно 1011.7 1004.0 +33.3
18 17.07 СЗ 2 20 км 6/4 600 м
[Cb cap Ac trans Ci fib]
+24.1 +16.4 62 +28 +28 душно 1013.0 1005.3
21 17.07 СВ 2 н/о н/о +20.8 +12.5 59 +24 1015.8 1008.0
00 18.07 СВ 3 20 км 3/3 1000 м
[Cu med, cong]
+19.4 +9.7 53 +21 +22 комфорт 1015.2 1007.3 +19.0
03 18.07 С 3 н/о н/о +22.0 +10.9 49 +24 +24 комфорт 1014.8 1007.1 +19.1
06 18.07 СВ 3 20 км ясно +25.3 +11.5 42 +27 +36 жарко 1014.4 1006.7
09 18.07 С 2 н/о н/о +27.7 +11.7 37 +29 +29 жарко 1012.9 1005.3
12 18.07 С 3 20 км ясно +27.0 +7.9 30 +27 +29 жарко 1012.8 1005.1 +27.8
18 18.07 В 2 20 км ясно +20.1 +8.1 46 +22 +22 комфорт 1017.2 1009.3
00 19.07 СВ 2 20 км ясно +18.6 +5.3 42 +19 +22 1013.4 1005.5 +18.0
06 19.07 В 3 20 км ясно +25.2 +4.9 27 +25 +34 комфорт 1018.5 1010.7
12 19.07 В 4 20 км ясно +26.1 +5.8 27 +25 +27 комфорт 1017.6 1009.8 +26.8
18 19.07 штиль 0 20 км ясно +11.6 +7.1 74 +11 +11 1021.5 1013.3
00 20.07 штиль 0 20 км 3/0
[Ci fib]
+13.7 +8.3 70 +13 +16 1023.1 1015.0 +8.7
06 20.07 ЮВ 1 20 км 1 балл +24.5 +7.6 34 +25 +36 комфорт 1022.5 1014.7
12 20.07 В 2 20 км ясно +25.5 +6.0 29 +25 +27 комфорт 1019.6 1011.8 +26.4
00 21.07 штиль 0 20 км ясно +9.4 +6.8 84 +9 +12 1020.1 1011.9 +8.8

 

Местоположение метеостанции Большой Порог (Эвенкия, Россия): широта 65.63 долгота 90.05 высота над уровнем моря 67 м.

В архиве по умолчанию представлена погода в Большом Пороге за последнюю неделю. Архивные данные за месяц целиком и за предыдущие месяцы, начиная с января 2011 года, Вы можете получить, выбрав интересующий диапазон дат из раскрывающегося списка и нажав кнопку "Ввод!".


*Определитесь, кто Вы:
робот инопланетянин человек

Внимание! Время в таблицах - всемирное. Для получения местного времени необходимо прибавить поправку, которая равна 7 ч.

Смотрите также архив погоды в соседних городах и на ближайших метеорологических станциях:

Погода в Туруханске (Красноярский край, Россия) (98 км)
Погода в Курейке (Красноярский край, Россия) (158 км)
Погода в Светлогорске (Красноярский край, Россия) (164 км)
Погода в Верещагино (Красноярский край, Россия) (198 км)
Погода в Агате (Эвенкия, Россия) (207 км)
Погода в Горбиачине (Красноярский край, Россия) (228 км)
Погода в Тутончанах (Эвенкия, Россия) (237 км)
Погода в Игарке (Красноярский край, Россия) (256 км)
Погода в Снежногорске (Красноярский край, Россия) (292 км)
Погода в Верхнеимбатске (Красноярский край, Россия) (294 км)

Пояснения к столбцам:

Ветер - указаны скорость ветра в м/с - средняя за 10 мин, порывы в срок и между сроками (в фигурных скобках) и направление, откуда дует ветер: С - северный, СВ - северо-восточный, В - восточный, ЮВ - юго-восточный, Ю - южный, ЮЗ - юго-западный, З - западный, СЗ - северо-западный.
Видимость - горизонтальная дальность видимости в метрах или километрах. При видимости от 1 до 10 км при отсутствии осадков обычно наблюдается дымка, при ухудшении видимости до 1 км и менее - туман. В сухую погоду видимость может ухудшаться дымом, пылью или мглою.
Явления - указаны атмосферные явления, наблюдавшиеся в срок или в последний час перед сроком; фигурными скобками обозначены явления, наблюдавшиеся между сроками (за 1-3 часа до срока); квадратными скобками обозначены град или гололедные отложения с указанием их диаметра в мм.
Облачность - указаны через наклонную черту общая и нижняя облачность в баллах и высота нижней границы облаков в метрах; квадратными скобками обозначены формы облаков: Ci - перистые, Cs - перисто-слоистые, Cc - перисто-кучевые, Ac - высококучевые, As - высокослоистые, Sc - слоисто-кучевые, Ns - слоисто-дождевые, Cu - кучевые, Cb - кучево-дождевые. Подробнее классификацию облаков см. в Атласе облаков (PDF).
T - Температура воздуха - температура, измеренная на высоте 2 м над землей.
Td - Температура точки росы - температура, при понижении до которой содержащийся в воздухе водяной пар достигнет насыщения.
f - Относительная влажность воздуха - влажноcть воздуха, измеренная на высоте 2 м над землей.
Te - Эффективная температура - температура, которую ощущает одетый по сезону человек в тени. Характеристика душности погоды. При расчете учитывается влияние влажности воздуха и скорости ветра на теплоощущения человека.
Tes - Эффективная температура на солнце - температура, которую ощущает человек, с поправкой на солнечный нагрев. Характеристика знойности погоды. Зависит от высоты солнца над горизонтом, облачности и скорости ветра. Ночью, в пасмурную погоду, а также при ветре 12 м/с и более поправка равна нулю.
P - Атмосферное давление - приведенное к уровню моря атмосферное давление.
Po - Атмосферное давление - измеренное на уровне метеостанции атмосферное давление.
Tmin - Минимальная температура - минимум температуры воздуха на высоте 2 м над землей.
Tmax - Максимальная температура - максимум температуры воздуха на высоте 2 м над землей.
R - Количество осадков - Количество выпавших осадков за период времени, мм. При наведении курсора мыши на число - период времени, за который выпало указанное количество осадков.
R24 - Количество осадков - Количество выпавших осадков за 24 часа, мм.
S - Снежный покров - Высота снежного покрова, см. При наведении курсора мыши на число - состояние снежного покрова и степень покрытия местности в баллах.